Flag for Norfolk Island Weather past 2 weeks in Kingston, Norfolk Island

Now
63 °F

Scattered showers. Partly sunny.


Feels Like: 63 °F
Forecast: 57 / 64 °F
Wind: 13 mph from Southeast

Location: Norfolk Island Airport

Current Time: Sep 23, 2014 at 12:46:59 PM

Latest Report: Sep 23, 2014 at 12:00 PM


Visibility: N/A

Pressure: 30.27 "Hg

Humidity: 68%

Dew point: 52 °F

Location of KingstonLocation

Historic Weather in Kingston — Graph

°F

Kingston temperature yesterday

Maximum temperature yesterday: 66 °F (at 1:30 PM)
Minimum temperature yesterday: 59 °F (at 12:00 AM)
Average temperature yesterday: 62 °F

Past Weeks' High & Low Weather Summary

 TemperatureHumidityPressure
High70 °F (Sep 18, 11:00 AM)100% (Sep 10, 12:00 AM)30.27 "Hg (Sep 10, 12:00 AM)
Low55 °F (Sep 15, 4:30 AM)43% (Sep 13, 3:00 PM)29.92 "Hg (Sep 18, 3:00 PM)
Average62 °F72%30.09 "Hg
* Reported Sep 8 11:30 AM — Sep 23 11:30 AM, Kingston, Weather by CustomWeather, © 2014

Note: Actual official high and low records may vary slightly from our data, if they occured in-between our weather recording intervals... More about our weather records

Advertising

Kingston weather history for previous 24 hours

 ConditionsComfort  
Time TempWeatherWind HumidityBarometerVisibility
11:30 AM
Sep 23
61 °FSprinkles. Broken clouds.17 mph77%30.27 "HgN/A
11:00 AM63 °FSprinkles. Partly sunny.13 mph73%30.27 "HgN/A
10:30 AM61 °FSprinkles. Broken clouds.13 mph83%30.27 "HgN/A
10:00 AM63 °FSprinkles. Broken clouds.10 mph73%30.27 "HgN/A
9:30 AM61 °FSprinkles. Partly sunny.13 mph83%30.27 "HgN/A
9:15 AM59 °FSprinkles. Broken clouds.10 mph82%30.27 "Hg4 mi
8:30 AM59 °FScattered showers. Scattered clouds.12 mph82%30.24 "HgN/A
8:00 AM61 °FScattered showers. Partly sunny.13 mph72%30.24 "HgN/A
7:30 AM61 °FScattered showers. Partly sunny.12 mph72%30.24 "HgN/A
7:00 AM61 °FSprinkles. Partly sunny.12 mph72%30.21 "HgN/A
6:30 AM59 °FBroken clouds.8 mph82%30.21 "HgN/A
6:00 AM59 °FCloudy.7 mph82%30.21 "HgN/A
5:30 AM57 °FDrizzle. Mostly cloudy.15 mph88%30.21 "Hg6 mi
4:30 AM59 °FOvercast.13 mph82%30.18 "HgN/A
4:00 AM59 °FMostly cloudy.8 mph82%30.18 "HgN/A
3:30 AM59 °FMostly cloudy.9 mph82%30.18 "HgN/A
3:00 AM57 °FPartly cloudy.15 mph88%30.18 "HgN/A
2:30 AM57 °FDrizzle. Mostly cloudy.13 mph88%30.18 "Hg3 mi
2:00 AM59 °FPartly cloudy.10 mph77%30.18 "HgN/A
1:30 AM59 °FOvercast.12 mph72%30.21 "HgN/A
1:00 AM61 °FMostly cloudy.12 mph68%30.21 "HgN/A
12:30 AM61 °FMostly cloudy.10 mph68%30.21 "HgN/A
12:00 AM61 °FMostly cloudy.12 mph68%30.21 "HgN/A
11:30 PM
Sep 22
61 °FOvercast.12 mph68%30.21 "HgN/A
11:00 PM61 °FOvercast.15 mph68%30.18 "HgN/A
10:30 PM61 °FOvercast.15 mph68%30.18 "HgN/A
10:00 PM61 °FOvercast.13 mph59%30.18 "HgN/A
9:30 PM61 °FOvercast.15 mph59%30.18 "HgN/A
9:00 PM61 °FOvercast.16 mph59%30.18 "HgN/A
8:30 PM61 °FMostly cloudy.16 mph68%30.18 "HgN/A
8:00 PM61 °FPassing clouds.15 mph68%30.15 "HgN/A
7:30 PM61 °FPassing clouds.18 mph63%30.15 "HgN/A
7:00 PM61 °FPassing clouds.15 mph68%30.15 "HgN/A
6:30 PM59 °FScattered showers. Passing clouds.13 mph88%30.15 "HgN/A
5:30 PM61 °FSprinkles. Broken clouds.17 mph83%30.15 "HgN/A
5:00 PM63 °FPassing clouds.15 mph68%30.12 "HgN/A
4:30 PM63 °FPassing clouds.15 mph73%30.12 "HgN/A
4:00 PM63 °FScattered clouds.16 mph73%30.12 "HgN/A
3:30 PM64 °FCloudy.15 mph64%30.12 "HgN/A
3:00 PM64 °FScattered clouds.20 mph56%30.12 "HgN/A
2:30 PM64 °FScattered clouds.24 mph56%30.12 "HgN/A
2:00 PM64 °FScattered clouds.22 mph60%30.12 "HgN/A
1:30 PM66 °FScattered clouds.20 mph60%30.12 "HgN/A
1:00 PM64 °FScattered clouds.21 mph60%30.15 "HgN/A
12:30 PM64 °FScattered clouds.22 mph64%30.15 "HgN/A
Weather by CustomWeather, © 2014

See weather overviewHow to use our weather pages